Weather in Gulevka

Russia / Bryansk Oblast     52°36′37″N   32°13′31″E
temp.,
°C
wind,
m/s
gust,
m/s
humid.,
%
clouds,
%
prec.,
mm/h
press.,
hPa
HPBL,
m
13 april, tue
tue1300:00+10ene2291100 0.0 102017
03:00+10se118989 0.0 102010
06:00+9ese3491100 0.0 102147
09:00+11se4884100 0.0 1020299
12:00+12sse5882100 0.0 1020539
15:00+11se4785100 0.0 1020336
18:00+12se3678100 0.0 1019416
21:00+11sse2387100 0.0 101943
14 april, wed
wed1400:00+10se3490100 0.1 101891
03:00+9sse369353 0.3 1018155
06:00+9sse3592100 0.0 1017141
09:00+10sse3685100 0.0 1017287
12:00+12s3577100 0.0 1017626
15:00+13sse3467100 0.1 1016780
18:00+13sse2369100 0.2 1015231
21:00+10ese2279100 0.3 101511
15 april, thu
thu1500:00+9se2287100 0.1 101523
03:00+8e2290100 0.1 101512
06:00+7e3392100 0.0 101441
09:00+11e3479100 0.0 1014292
12:00+14se336242 0.0 1014763
15:00+16e335393 0.8 10131463
18:00+14ene347055 1.2 1012400
21:00
16 april, fri
fri1600:00+9ene499270 0.5 1012243
03:00+9ene489375 0.8 1012259
06:00+9ene51092100 0.0 1011366
09:00+11ese588289 0.1 1012571
12:00+13ese5668100 0.1 10121170
15:00+13se4562100 0.8 10131211
18:00+11s3674100 0.1 1014324
21:00+8sse117783 0.8 101714
17 april, sat
sat1700:00+8sse238399 0.0 101782
03:00+6se228618 0.0 101820
06:00+5se2283100 0.0 101915
09:00+8e1272100 0.0 1020273
12:00+11ne3364100 0.1 1021999
15:00+11ne556956 0.3 1021824
18:00+9ne489097 0.1 1022587
21:00+9ne41192100 0.2 1023547